Theta_e
285 285 285 285 285 284 284 284 284 284 283 283 283 283 283 284 284 284 284 284 284 285 285 285 286 286 286 285 285 285 285 285 285 285 286 286 286 287 287 287 287 287 287 287 287 288 288 288 288 288 288 289 289 289 289 290 290 290 290 290 290 291 291 291 291 291 292 292 292 292 292 292 292 292 292 292 292 292 292 292 292 292 292 292 292 293
285 285 285 284 284 284 284 284 284 283 283 283 283 283 283 284 284 284 284 284 285 285 285 286 286 285 285 284 284 284 284 284 285 285 285 286 286 286 287 287 287 287 287 287 287 287 288 288 288 288 288 289 289 289 289 289 289 290 290 290 290 290 290 290 290 291 291 291 291 291 291 291 291 291 291 291 291 291 291 291 291 292 292 292 292 293
284 284 284 284 284 284 284 283 283 283 283 283 283 284 284 284 284 284 284 285 285 285 286 285 285 285 284 284 283 283 284 284 285 285 285 286 286 286 286 286 286 287 287 287 287 287 287 288 288 288 288 288 288 289 289 289 289 289 289 289 289 289 290 290 290 290 290 290 290 290 290 290 290 290 290 290 290 290 291 291 291 291 292 292 292 293
284 284 284 284 284 284 284 284 283 283 283 284 284 284 284 284 284 284 285 285 285 286 285 285 284 284 283 283 283 283 283 284 284 285 285 285 286 286 286 286 286 286 287 287 287 287 287 287 288 288 288 288 288 288 288 288 288 288 288 289 289 289 289 289 289 289 289 289 289 289 289 290 290 290 290 290 290 290 290 291 291 291 291 291 292 292
284 284 284 284 284 284 284 284 284 284 284 284 284 284 284 285 285 285 285 286 285 285 285 284 284 283 283 283 283 283 283 284 284 285 285 285 285 285 285 286 286 286 286 287 287 287 287 287 288 288 288 288 288 288 288 288 288 288 288 288 288 289 289 289 289 289 289 289 289 289 289 289 289 289 289 289 290 290 290 290 290 291 291 291 291 291
284 284 284 284 284 284 284 284 284 284 284 284 284 285 285 285 285 285 285 285 285 284 284 283 283 283 283 283 283 283 283 284 284 284 284 284 285 285 285 285 286 286 286 286 287 287 287 287 287 287 287 287 287 287 287 287 287 288 288 288 288 288 288 288 288 288 288 288 288 288 288 288 289 289 289 289 289 289 290 290 290 290 291 291 291 291
284 284 284 284 284 284 284 284 284 284 285 285 285 285 285 285 285 285 285 284 284 283 283 283 283 283 283 283 283 283 283 283 283 283 284 284 284 285 285 285 285 286 286 286 287 287 287 287 287 287 287 287 287 287 287 287 287 287 287 287 287 288 288 288 288 288 288 288 288 288 288 288 288 288 289 289 289 289 290 290 290 291 291 291 291 292
285 284 284 284 284 284 284 285 285 285 285 285 285 285 285 285 285 284 284 284 283 283 283 283 283 283 283 283 283 283 283 283 283 283 283 284 284 284 285 285 285 286 286 286 286 286 286 286 286 286 286 286 286 286 286 286 287 287 287 287 287 287 287 287 287 287 287 287 287 288 288 288 288 289 289 289 289 289 290 290 291 291 291 291 292 292
285 285 285 285 285 285 285 285 285 285 285 285 285 285 285 285 284 284 283 283 283 283 283 283 283 283 283 283 283 283 283 283 283 283 283 284 284 284 285 285 285 285 286 286 286 286 285 285 285 285 286 286 286 286 286 286 286 286 286 286 286 286 286 286 286 287 287 287 287 287 288 288 288 289 289 289 290 290 290 291 291 291 291 291 292 292
285 285 285 285 285 285 285 285 285 284 284 284 285 285 285 284 284 283 283 283 283 283 283 283 283 283 283 283 283 283 283 283 283 284 284 284 284 285 285 285 285 285 285 285 285 285 285 285 285 285 285 285 285 285 285 286 286 286 286 286 286 286 286 286 286 286 287 287 287 288 288 288 289 289 290 290 290 290 290 290 290 291 291 291 291 292
285 285 286 286 286 285 285 285 284 284 284 284 284 284 284 284 283 283 283 283 283 283 282 282 282 283 283 283 283 283 283 283 283 284 284 284 284 284 285 285 284 284 284 284 284 284 284 284 284 284 284 284 285 285 285 285 285 285 285 285 285 285 285 286 286 286 287 287 287 288 288 288 289 289 289 290 290 290 290 290 290 290 291 291 291 291
286 286 286 286 285 285 284 284 284 284 284 284 284 284 283 283 283 283 282 282 282 282 282 282 282 282 283 283 283 283 283 283 284 284 284 284 284 284 284 284 284 283 283 283 283 283 283 283 283 284 284 284 284 284 284 284 284 284 285 285 285 285 285 286 286 286 287 287 288 288 288 288 289 289 289 289 290 290 290 290 290 290 290 290 290 291
286 286 285 285 284 284 284 284 284 284 284 284 284 283 283 283 282 282 282 282 282 282 282 282 282 283 283 283 283 283 284 284 284 284 284 284 284 284 284 283 283 283 283 282 282 282 282 282 283 283 283 283 283 284 284 284 284 284 284 284 285 285 285 286 286 287 287 287 287 288 288 288 288 289 289 289 289 290 290 290 290 290 290 290 290 290
285 285 284 284 284 284 284 284 284 284 284 284 283 283 282 282 282 282 282 282 282 282 282 282 283 283 283 283 284 284 284 284 284 284 284 284 284 284 283 283 283 282 282 282 282 282 282 282 282 282 283 283 283 283 283 283 283 284 284 284 285 285 286 286 286 287 287 287 287 288 288 288 288 288 289 289 289 289 289 290 290 290 290 290 290 290
285 285 284 284 284 284 284 284 284 284 283 283 282 282 282 282 282 282 282 282 282 282 282 283 283 283 283 284 284 284 284 284 284 284 284 284 283 283 283 283 282 282 282 282 282 282 282 282 282 282 282 282 282 282 282 283 283 284 284 285 285 285 286 286 286 286 287 287 287 288 288 288 288 288 288 289 289 289 289 289 289 290 290 290 290 290
285 285 285 285 285 284 284 284 283 283 282 282 282 282 282 282 282 282 282 282 282 282 283 283 283 284 284 284 284 284 284 284 284 284 283 283 283 283 282 282 282 282 282 282 282 282 282 282 282 282 282 282 282 282 283 283 284 284 284 285 285 285 285 286 286 286 287 287 287 287 288 288 288 288 288 288 289 289 289 289 289 289 289 290 290 290
285 285 285 285 284 284 283 283 282 282 282 282 281 282 282 282 282 282 282 282 282 283 283 283 284 284 284 284 284 284 284 284 283 283 283 283 282 282 282 282 282 282 282 282 282 282 282 282 282 282 282 282 282 282 283 283 284 284 284 285 285 285 285 286 286 286 286 287 287 287 287 288 288 288 288 288 288 289 289 289 289 289 289 289 290 290
285 285 285 284 284 283 283 282 282 282 281 281 281 282 282 282 282 282 282 282 283 283 283 283 284 284 284 284 284 284 284 283 283 282 282 282 282 282 282 282 281 281 282 282 282 282 282 282 282 282 282 282 282 283 283 283 284 284 284 284 285 285 285 286 286 286 286 287 287 287 287 287 287 288 288 288 288 288 289 289 289 289 289 290 290 290
285 284 284 284 283 283 282 282 282 282 281 282 282 282 282 282 282 282 283 283 283 283 284 284 284 284 284 284 284 283 283 282 282 282 282 282 282 281 281 281 281 281 281 282 282 282 282 282 282 282 282 282 282 283 283 283 283 284 284 284 285 285 285 285 286 286 286 286 287 287 287 287 287 287 288 288 288 288 288 289 289 289 289 290 290 290
284 284 283 283 282 282 282 282 282 282 282 282 282 282 282 282 283 283 283 283 284 284 284 284 284 284 284 283 283 282 282 282 282 281 281 281 281 281 281 281 281 281 281 281 281 281 281 281 281 281 281 282 282 282 283 283 283 284 284 284 285 285 285 285 286 286 286 286 286 287 287 287 287 287 287 288 288 288 288 288 289 289 289 289 289 289
283 283 283 282 282 282 282 282 282 282 282 282 282 282 282 283 283 283 283 284 284 284 284 284 283 283 283 282 282 282 282 281 281 281 281 281 281 281 281 281 281 281 281 281 281 281 281 281 281 281 281 282 282 282 283 283 284 284 284 284 285 285 285 285 285 286 286 286 286 286 286 287 287 287 287 288 288 288 288 288 288 288 288 288 289 289
283 283 283 282 282 282 282 282 282 282 282 282 282 282 283 283 283 283 284 284 284 283 283 283 282 282 282 282 282 281 281 281 281 281 281 281 281 281 281 281 281 281 281 281 281 281 281 281 281 281 282 282 282 283 283 283 283 284 284 284 284 285 285 285 285 285 286 286 286 286 286 287 287 287 287 287 287 288 288 288 288 288 288 288 288 289
283 283 283 283 282 282 282 282 282 282 282 282 282 283 283 283 284 284 284 283 283 282 282 282 282 281 281 281 281 281 281 281 281 280 280 280 281 281 281 281 281 281 281 281 281 281 281 281 281 282 282 282 282 282 283 283 283 284 284 284 284 285 285 285 285 285 285 286 286 286 286 287 287 287 287 287 287 287 287 288 288 288 288 288 288 289
283 283 283 283 283 283 283 283 283 283 283 284 284 284 284 284 283 283 282 282 282 282 281 281 281 281 281 281 281 281 281 281 280 280 280 280 280 281 281 281 281 281 281 281 281 281 281 281 282 282 282 282 282 282 283 283 283 283 284 284 284 284 284 285 285 285 285 286 286 286 286 286 286 286 287 287 287 287 287 287 288 288 288 288 288 289
283 283 283 283 283 283 284 284 284 285 285 285 285 284 284 283 282 282 282 282 281 281 281 281 281 281 280 280 280 280 280 280 280 280 280 280 280 281 281 281 281 281 281 281 281 281 281 282 282 282 282 282 282 282 282 283 283 283 283 284 284 284 284 284 285 285 285 285 286 286 286 286 286 286 286 287 287 287 287 287 287 288 288 288 288 288
283 283 283 284 284 284 285 285 285 285 285 284 283 283 282 282 282 282 282 281 281 281 281 281 281 280 280 280 280 280 280 280 280 280 280 280 281 281 281 281 281 281 281 281 281 281 282 282 282 282 282 282 282 282 282 282 282 283 283 283 284 284 284 284 285 285 285 285 285 285 285 286 286 286 286 286 287 287 287 287 288 288 288 288 288 288
283 283 283 284 284 284 284 284 283 283 283 282 282 282 282 282 282 282 281 281 281 281 280 280 280 280 280 280 280 280 280 280 280 280 280 280 280 281 281 281 281 281 281 281 281 281 281 282 282 282 282 282 281 282 282 282 282 282 283 283 283 284 284 284 284 284 285 285 285 285 285 285 286 286 286 286 286 287 287 287 287 288 288 288 288 288
283 283 283 283 283 283 282 282 282 281 281 281 281 281 281 281 281 281 281 281 280 280 280 280 280 280 280 280 280 280 280 280 280 280 280 280 280 281 281 281 281 281 281 281 281 281 281 281 281 281 281 281 282 282 282 282 282 282 283 283 283 283 283 284 284 284 284 284 284 285 285 285 285 286 286 286 286 287 287 287 287 287 287 287 287 287
282 282 282 282 282 281 281 280 280 280 280 280 280 281 281 281 281 280 280 280 280 280 280 280 280 280 280 280 280 280 280 280 280 280 280 280 280 281 281 281 281 281 281 281 281 281 281 281 281 281 281 281 282 282 282 282 282 282 282 282 282 283 283 283 283 284 284 284 284 284 285 285 285 285 286 286 286 286 286 287 287 287 287 287 287 287
281 281 281 280 280 280 279 279 279 279 279 280 280 280 280 280 280 280 280 280 279 280 280 280 280 280 280 280 280 280 280 280 280 280 280 280 281 281 281 281 281 281 281 281 281 281 281 281 281 281 281 282 282 282 282 282 282 282 282 282 282 282 282 283 283 283 283 284 284 284 284 285 285 285 285 285 286 286 286 286 287 287 287 287 287 287
280 280 280 279 279 279 279 279 279 279 279 279 279 280 280 280 280 280 280 280 280 280 280 280 280 280 280 280 280 280 280 280 280 280 280 280 280 280 280 281 281 281 281 281 281 281 281 281 281 281 281 281 282 282 282 282 282 282 282 282 282 282 282 282 283 283 283 283 284 284 284 284 284 285 285 285 285 286 286 286 286 287 287 287 287 287
279 279 279 279 279 279 279 279 279 279 279 279 279 279 279 279 280 280 280 280 280 280 280 280 280 280 280 280 280 280 280 280 280 280 280 280 280 280 280 280 281 281 281 281 281 281 281 281 281 281 281 281 281 282 282 282 282 282 282 282 282 282 282 282 282 283 283 283 283 283 284 284 284 284 284 285 285 285 286 286 286 286 286 286 286 286
279 279 279 279 279 279 279 279 279 279 279 279 279 279 279 279 280 280 280 280 280 279 279 279 279 279 279 279 279 279 279 279 280 280 280 280 280 280 280 280 280 281 281 281 281 281 281 281 281 281 281 281 282 282 282 282 282 282 282 282 282 282 282 282 282 282 282 282 283 283 283 283 283 284 284 284 285 285 285 285 286 286 286 286 286 286
279 279 278 278 279 279 279 279 279 279 279 279 279 279 279 279 279 279 279 279 279 279 279 279 279 279 279 279 279 279 279 279 279 280 280 280 280 280 280 280 280 280 280 280 280 281 281 281 281 281 281 281 282 282 282 282 282 282 282 282 282 282 282 282 282 282 282 282 282 282 283 283 283 283 283 284 284 284 285 285 285 286 286 286 286 287
278 278 278 278 279 279 279 279 279 279 279 279 279 279 279 279 279 279 279 279 279 279 279 279 279 279 279 279 279 279 279 279 279 279 280 280 280 280 280 280 280 280 280 280 280 280 281 281 281 281 281 282 282 281 281 282 282 282 282 282 282 282 282 282 282 282 282 282 282 282 282 282 283 283 283 283 284 284 284 285 285 286 286 286 287 287
278 278 279 279 279 279 279 279 279 279 279 279 279 279 279 279 279 279 279 279 279 279 279 279 279 279 279 279 279 279 279 279 279 279 280 280 280 280 280 280 280 280 280 280 280 281 281 281 281 281 281 281 281 281 281 281 282 282 282 282 282 282 282 282 282 282 282 282 282 282 282 283 283 283 283 283 284 284 285 285 285 286 286 286 286 286
279 279 279 279 279 279 279 279 279 279 279 279 279 279 279 279 279 279 279 279 279 279 279 279 279 279 279 279 279 279 279 279 279 279 279 279 279 279 280 280 280 280 280 280 280 281 281 281 281 281 281 281 281 281 281 282 282 282 282 282 282 282 282 282 282 282 282 282 283 283 283 283 283 283 284 284 284 284 285 285 285 285 285 286 286 286
279 279 279 279 279 279 279 279 279 279 279 279 279 279 279 279 279 279 279 279 279 279 279 279 279 279 279 279 279 279 279 279 279 279 279 279 279 279 280 280 280 280 280 280 280 280 281 281 281 281 281 281 281 281 282 282 282 282 282 282 282 282 282 282 282 282 283 283 283 283 283 283 284 284 284 284 284 284 284 284 284 284 285 285 285 285
279 279 279 279 279 279 279 279 279 279 279 279 279 279 279 279 279 279 279 279 279 279 279 279 279 279 279 279 279 279 279 279 279 279 279 279 279 279 280 280 280 280 280 280 280 280 280 280 281 281 281 281 281 281 281 281 282 282 282 282 282 282 282 282 283 283 283 283 283 283 283 283 284 284 284 284 284 284 284 284 284 284 284 285 285 285
279 279 279 279 279 279 279 279 279 279 279 279 279 279 279 279 279 279 279 279 278 278 278 278 279 279 279 279 279 279 279 279 279 279 279 279 279 279 279 280 280 280 280 280 280 280 280 280 281 281 281 281 281 281 281 282 282 282 282 282 282 283 283 283 283 283 283 283 283 283 283 283 284 284 284 284 284 284 284 284 284 285 285 285 285 285
279 279 279 279 279 279 279 279 279 279 279 279 279 279 279 279 279 278 278 278 278 278 279 279 279 279 279 279 279 279 279 279 279 279 279 279 280 279 279 279 280 280 280 280 280 280 280 280 281 281 281 281 281 281 282 282 282 282 282 282 283 283 283 283 283 283 283 283 283 283 283 284 284 284 284 284 284 284 284 285 285 285 285 285 285 285
279 279 279 279 279 279 279 279 279 279 279 279 279 279 279 278 278 278 278 278 278 279 279 279 279 279 279 279 279 279 279 279 279 279 279 280 280 280 280 280 280 280 280 280 280 280 280 280 280 281 281 281 281 281 282 282 282 282 282 282 283 283 283 283 283 283 283 283 283 283 284 284 284 284 284 284 284 284 284 285 285 285 285 285 285 285
279 279 278 278 278 279 279 279 279 279 279 279 278 278 278 278 278 278 278 278 279 279 279 279 279 279 279 279 279 279 279 279 279 280 280 280 280 280 280 280 280 280 280 280 280 280 280 281 281 281 281 281 281 282 282 282 282 282 282 282 283 283 283 283 283 283 283 283 284 284 284 284 284 284 284 284 284 284 285 285 285 285 285 285 285 285
278 278 278 278 278 279 279 279 279 279 278 278 278 278 278 278 278 278 278 279 279 279 279 279 279 279 279 279 279 279 279 280 280 280 280 280 280 280 280 280 280 280 280 280 280 280 281 281 281 281 281 281 282 282 282 282 282 282 282 283 283 283 283 283 283 283 283 284 284 284 284 284 284 284 284 284 284 285 285 285 285 285 285 285 285 285
278 278 278 278 278 278 278 278 278 278 278 278 278 278 278 278 278 278 278 278 279 279 279 279 279 279 279 279 279 279 280 280 280 280 280 280 280 280 280 280 280 280 280 280 280 281 281 281 281 281 281 282 282 282 282 282 282 283 283 283 283 283 283 283 283 283 283 284 284 284 284 284 284 284 284 284 285 285 285 285 285 285 285 285 285 285
278 278 278 278 278 278 278 278 278 278 278 278 278 278 278 278 278 278 278 278 279 279 279 279 279 279 279 279 279 279 279 279 280 280 280 280 280 280 280 280 280 281 281 281 281 281 281 281 281 282 282 282 282 282 282 282 282 283 283 283 283 283 283 283 283 283 284 284 284 284 284 284 284 284 285 285 285 285 286 286 286 286 286 285 285 285
278 278 278 278 278 278 278 278 278 278 278 278 278 278 278 278 278 278 278 279 279 279 279 279 279 279 279 279 279 279 279 279 280 280 280 280 280 280 280 281 281 281 281 281 281 281 282 282 282 282 282 282 282 282 282 282 282 282 283 283 283 283 283 283 283 284 284 284 284 284 284 285 285 285 285 286 286 286 286 286 286 286 286 285 285 285
278 278 278 278 278 278 278 278 278 278 278 278 278 278 278 278 278 278 279 279 279 279 279 279 279 279 279 279 279 279 279 279 280 280 280 280 280 280 281 281 281 281 281 281 282 282 282 282 282 282 282 282 282 282 282 282 282 282 283 283 283 283 283 284 284 284 284 285 285 285 285 285 286 286 286 286 286 286 286 286 285 285 285 285 285 285
278 277 277 277 277 277 278 278 278 278 278 278 278 278 278 278 278 278 278 278 278 278 278 278 279 279 279 279 279 279 279 280 280 280 280 280 281 281 281 281 281 281 282 282 282 282 282 282 282 282 282 282 282 282 282 283 283 283 283 283 283 284 284 284 284 285 285 285 285 286 286 286 286 286 286 286 286 286 285 285 285 285 285 285 285 285
277 277 277 277 277 277 277 278 278 278 278 278 278 278 278 278 278 278 278 278 278 278 278 278 279 279 279 279 279 279 279 280 280 280 280 281 281 281 281 281 281 281 281 282 282 282 282 282 282 282 283 283 283 283 283 283 283 284 284 284 284 284 285 285 285 285 285 286 286 286 285 285 285 285 285 285 285 285 285 285 285 285 285 285 285 285
277 277 277 277 277 277 277 277 277 277 278 278 278 278 278 278 278 278 278 278 278 278 278 278 278 279 279 279 279 279 280 280 280 280 280 281 281 281 281 281 281 281 281 282 282 282 282 282 283 283 283 283 284 284 284 284 284 284 285 285 285 285 285 285 285 285 285 285 285 285 285 285 285 285 285 285 285 285 285 285 285 285 285 285 285 285
Wind_Speed
18 19 20 20 21 22 22 23 23 24 25 26 26 26 26 25 26 26 26 26 25 24 24 23 24 24 25 26 26 26 25 25 25 25 25 25 25 25 25 26 26 26 27 27 27 27 27 27 27 27 27 27 27 27 27 27 27 27 27 27 27 27 27 27 27 27 27 27 27 27 27 28 28 27 27 27 27 28 28 28 28 28 29 29 30 30
18 19 19 19 20 21 22 22 22 23 24 25 26 26 26 26 27 27 26 25 23 23 23 23 24 25 26 27 27 26 25 24 24 24 24 25 25 26 26 26 27 27 27 27 27 27 26 26 27 27 27 27 27 27 27 27 27 27 27 27 27 27 27 27 27 27 27 27 27 27 27 27 27 27 27 27 27 28 28 28 28 28 29 29 29 30
18 18 19 19 19 20 21 22 22 23 24 25 25 26 26 27 27 26 25 23 22 22 22 23 25 26 26 27 26 25 24 24 24 24 25 25 26 26 27 27 27 27 27 26 26 26 26 26 27 27 27 27 28 28 28 28 28 28 28 28 28 28 27 27 27 27 27 27 27 27 27 27 27 27 27 27 27 27 27 27 28 28 28 28 29 29
17 18 19 20 19 20 20 21 23 23 24 24 25 25 26 26 25 24 23 22 22 22 23 24 25 26 26 26 25 25 24 23 24 24 25 26 26 27 27 27 27 26 26 26 26 26 26 27 27 27 28 28 28 28 28 29 29 28 28 28 28 28 28 27 27 27 27 27 27 27 27 26 26 26 26 26 27 27 27 27 27 27 28 28 28 29
17 18 19 20 20 20 20 21 22 23 23 23 24 24 24 24 23 22 21 21 22 23 24 25 25 25 24 24 24 24 23 23 24 25 25 26 26 26 26 26 26 26 26 26 26 26 27 27 27 28 28 29 29 29 29 29 29 29 29 28 28 28 27 27 27 27 27 26 26 26 26 26 26 26 26 26 26 26 27 27 27 27 28 28 28 29
18 18 19 19 19 20 21 22 22 22 23 23 23 23 22 21 20 20 21 22 23 24 25 24 24 23 23 23 24 24 24 24 24 25 25 25 26 26 26 26 26 26 26 26 26 26 27 27 28 28 29 29 30 30 30 30 29 29 28 28 28 27 27 27 27 27 26 26 26 26 26 26 26 26 26 26 26 26 27 27 27 27 28 28 28 29
19 19 19 20 20 21 21 21 21 21 21 22 22 21 20 19 20 20 22 23 24 24 24 23 23 22 23 23 24 24 24 25 25 25 24 24 25 25 25 25 25 25 26 26 26 26 27 28 29 29 30 30 30 30 30 29 29 29 28 28 27 27 27 26 26 26 26 26 26 26 26 26 26 26 26 26 26 26 27 27 27 28 28 28 29 29
20 20 20 21 21 21 20 20 19 20 20 21 21 21 21 20 21 21 22 22 22 22 22 22 22 22 22 23 24 24 25 25 25 25 24 24 24 25 25 25 25 25 25 25 26 27 28 29 30 30 31 31 30 30 29 29 28 28 27 27 27 26 26 26 26 26 26 26 26 26 26 26 26 26 26 27 27 28 28 28 28 29 29 29 29 29
20 21 21 20 19 19 19 19 18 19 20 20 20 20 21 22 22 22 22 21 21 20 21 22 22 23 23 23 23 24 24 24 24 24 24 25 25 25 25 25 24 24 24 25 26 27 29 30 30 31 31 31 30 30 29 28 28 27 27 27 26 26 26 26 26 26 26 26 26 26 26 26 27 27 28 28 29 29 29 29 29 29 29 29 29 30
20 20 20 19 17 16 16 18 19 20 20 20 20 20 20 21 22 22 22 21 21 20 20 21 22 23 23 23 23 24 24 24 23 23 24 24 25 25 24 24 23 24 24 25 27 28 30 30 31 31 30 30 30 29 28 28 27 27 27 27 27 27 27 27 26 26 26 26 27 27 27 27 28 29 29 29 29 29 29 29 29 29 29 29 29 30
18 18 16 15 15 15 16 18 20 21 20 20 20 19 18 19 20 21 22 22 22 22 21 21 22 23 24 24 24 24 24 24 24 24 24 24 23 23 22 22 22 23 25 26 28 29 30 30 30 30 30 29 29 28 27 27 27 27 27 27 27 27 27 27 27 27 27 27 27 28 28 29 29 29 29 29 29 29 29 29 29 29 29 29 29 30
16 14 14 14 15 17 19 20 20 20 19 19 18 18 18 17 18 19 21 22 23 23 23 22 22 23 23 24 25 25 24 24 24 24 23 22 22 22 22 22 23 25 27 28 29 29 30 29 29 28 28 28 28 27 27 27 27 27 27 28 28 28 27 27 27 28 28 28 28 29 29 29 29 29 29 29 29 29 30 30 29 29 29 29 29 30
14 13 14 16 18 19 19 19 19 18 17 17 17 17 18 19 19 20 20 21 22 23 24 24 24 24 24 24 24 24 23 23 23 22 21 20 20 21 22 24 26 27 28 28 29 29 29 29 28 27 27 27 27 27 27 27 28 28 28 28 28 28 28 28 28 28 29 29 29 29 29 29 29 30 30 29 30 30 30 30 30 30 29 29 29 30
15 15 16 17 18 18 17 17 17 17 17 17 17 18 19 20 21 21 21 22 22 23 24 24 24 24 24 23 22 22 22 21 21 20 20 20 21 23 24 26 27 28 28 28 28 29 28 27 27 27 28 28 28 28 29 28 28 28 28 29 29 29 29 29 29 29 29 29 29 29 29 30 30 30 30 30 30 30 30 30 30 30 30 30 30 30
16 16 16 16 16 17 17 17 17 18 18 19 19 20 21 21 21 21 21 21 23 24 24 24 24 24 22 21 20 20 20 19 19 19 21 22 24 25 26 27 27 27 27 27 27 28 27 27 27 28 28 29 29 29 29 29 29 29 29 30 30 30 30 30 30 30 30 30 30 30 30 30 30 30 30 30 30 31 31 30 30 30 30 29 29 30
16 16 15 15 16 17 17 18 18 19 20 20 20 20 20 20 20 20 21 22 23 23 22 22 22 21 21 20 19 18 18 18 19 20 23 26 27 27 26 27 27 27 26 26 26 27 27 27 27 28 28 29 29 29 29 29 30 30 31 31 31 31 31 31 31 30 30 30 30 30 30 31 31 31 31 31 31 31 31 31 30 30 30 29 29 30
16 15 15 15 16 17 18 19 19 20 20 20 20 19 19 20 21 21 22 22 22 21 20 18 15 12 14 19 20 18 19 20 21 23 25 27 28 27 26 25 25 26 26 25 25 26 26 26 27 27 28 28 29 29 29 30 31 31 32 32 32 31 31 31 31 31 31 31 31 31 31 31 31 31 31 30 30 30 31 31 31 30 30 30 30 30
14 14 15 16 17 18 19 19 20 20 20 20 20 20 20 21 22 23 22 22 20 19 17 16 14 11 10 15 19 21 21 23 24 25 26 27 28 27 25 24 24 24 25 24 25 25 25 26 27 28 28 28 29 29 30 31 31 32 32 32 31 31 31 31 31 31 32 32 32 32 32 31 31 31 31 30 30 30 30 31 31 30 30 30 30 30
15 17 17 17 18 19 20 20 20 19 19 20 20 21 22 23 23 22 21 21 19 18 17 16 15 15 15 18 21 25 25 25 25 25 25 25 26 27 25 23 23 23 24 24 24 25 25 26 27 28 28 29 30 30 31 31 31 31 31 31 31 32 32 32 32 32 32 32 32 32 32 32 31 31 31 31 31 31 31 31 31 30 30 30 30 30
18 19 19 19 20 20 20 20 20 20 20 21 22 23 23 23 23 22 21 19 18 17 16 15 16 17 20 23 26 28 27 25 24 24 24 25 25 25 24 22 22 23 24 24 25 25 25 27 28 29 29 29 29 29 30 30 31 31 31 32 32 32 33 33 33 33 32 32 32 32 32 32 31 31 31 31 31 31 31 31 31 31 30 30 30 30
20 20 20 20 20 20 20 20 20 21 22 24 24 24 24 23 21 19 18 16 15 15 14 15 18 21 24 25 27 29 28 25 23 22 22 23 24 24 23 22 22 23 24 25 25 25 25 26 27 28 28 28 28 29 30 30 31 32 32 32 33 33 33 33 33 33 33 32 32 32 32 32 32 32 31 31 31 31 31 31 31 30 30 30 29 29
21 21 21 20 20 20 21 22 23 24 26 27 26 24 23 21 19 17 16 15 15 16 18 20 23 25 26 27 28 28 27 24 22 21 20 19 21 23 23 22 22 23 24 25 26 25 26 26 27 27 28 28 28 29 30 31 31 32 32 32 32 33 33 33 33 33 33 32 32 32 32 32 32 32 32 32 32 32 31 31 31 30 30 29 29 29
20 21 21 21 21 22 23 25 26 28 28 28 26 24 22 19 17 16 16 17 19 21 23 25 26 27 26 26 26 26 25 23 21 20 18 15 18 22 23 22 22 23 24 25 26 25 26 26 26 27 27 27 28 29 30 31 31 32 32 32 32 32 33 33 33 33 33 32 32 32 32 32 32 32 32 32 32 31 31 31 30 30 30 29 29 29
20 21 22 22 23 24 25 25 26 26 26 25 23 21 20 18 18 19 21 23 23 23 23 24 25 24 24 24 24 24 23 22 20 19 17 16 19 22 23 22 22 23 25 26 26 25 26 26 26 27 27 27 28 29 29 30 31 31 31 32 32 32 32 33 33 33 33 32 32 33 33 33 33 33 32 32 32 31 31 30 30 30 30 30 30 30
22 22 23 23 23 24 24 23 23 23 23 22 20 20 20 21 23 24 25 24 22 21 20 20 20 20 21 21 22 22 22 21 19 18 17 17 19 22 23 22 22 23 25 26 26 25 26 26 27 27 27 28 28 28 29 29 30 30 31 31 31 32 32 33 33 33 33 33 33 33 33 33 33 32 32 32 31 31 30 30 30 30 30 30 30 30
22 22 22 23 23 23 23 23 23 23 23 23 23 24 25 25 24 24 23 22 20 18 17 16 16 17 19 20 20 21 21 21 19 18 18 18 20 22 24 23 22 23 25 26 26 26 26 27 27 27 27 28 28 28 28 29 29 30 30 31 31 32 32 33 33 33 33 33 33 33 33 32 32 32 31 31 31 30 30 30 30 30 30 30 30 30
22 22 22 21 21 21 21 21 21 22 23 24 24 24 23 22 21 19 18 18 17 16 16 14 14 15 18 18 18 20 21 21 21 20 19 19 20 21 22 22 22 23 25 26 27 26 26 27 27 27 27 28 28 28 28 28 28 28 29 30 31 32 33 33 33 33 33 33 33 32 32 32 31 31 31 31 31 31 30 30 30 30 30 30 30 29
20 20 19 18 18 18 19 20 22 23 24 24 23 22 20 19 17 16 15 16 16 16 16 14 12 11 13 15 18 21 23 23 22 21 20 19 17 18 21 22 22 23 24 26 27 27 26 26 26 26 26 27 27 27 26 26 27 28 29 30 31 32 33 33 33 33 33 32 32 32 31 31 31 31 31 31 30 30 30 30 30 30 30 29 28 28
17 16 16 17 18 19 21 22 23 24 23 21 20 18 17 16 15 15 16 17 17 16 16 16 15 14 15 17 20 22 23 23 22 20 18 16 16 18 21 22 22 23 24 25 27 28 26 24 23 23 24 24 25 25 26 26 27 28 29 31 32 32 33 33 32 32 32 31 31 31 31 31 31 31 30 30 30 30 30 30 29 29 29 28 27 27
16 17 18 20 22 22 23 23 23 22 20 18 17 16 15 15 16 17 18 18 17 16 16 16 16 17 17 18 17 17 18 20 19 17 16 15 16 19 22 22 22 22 22 20 17 17 21 24 23 21 21 22 24 25 26 27 28 29 29 30 31 31 32 32 31 31 31 31 31 31 31 30 30 30 30 30 30 30 29 29 29 28 28 28 27 27
18 20 22 24 24 24 23 22 21 20 18 17 16 15 15 16 17 17 18 17 16 16 16 16 17 17 17 14 9 6 9 18 20 17 17 16 17 20 22 21 22 22 21 16 8 4 11 17 22 23 21 22 24 26 26 27 27 28 28 29 30 31 31 31 30 30 30 30 30 30 30 30 30 30 30 30 29 29 29 29 28 27 27 28 27 26
22 23 24 24 23 22 21 20 19 19 18 17 17 16 16 16 16 16 16 16 16 16 16 17 17 18 18 16 11 9 12 21 23 21 19 18 19 21 21 21 21 22 22 20 15 10 8 9 18 26 25 25 25 26 26 26 26 27 28 29 30 31 31 30 30 29 29 29 29 29 29 29 29 29 29 29 29 29 29 29 28 27 26 27 26 26
23 23 23 22 21 21 20 20 19 19 19 18 18 17 17 16 16 16 16 16 16 17 17 17 18 19 19 20 19 19 22 25 25 23 20 18 18 20 22 22 22 23 23 22 22 20 15 14 20 26 28 27 26 25 25 26 26 27 28 29 30 31 31 30 29 29 29 29 29 29 29 29 29 29 29 29 29 29 29 28 28 27 26 25 25 25
22 21 20 20 20 20 20 20 20 19 19 18 18 17 17 17 17 17 17 17 18 18 18 18 19 19 19 19 21 23 25 27 25 22 20 19 19 20 22 22 22 23 23 22 22 22 21 23 23 24 25 27 27 26 25 26 26 27 28 28 29 30 31 30 29 29 29 29 29 29 29 30 29 29 29 28 28 28 27 27 27 26 26 25 25 25
20 19 19 19 19 19 19 19 19 19 18 18 17 17 17 18 18 18 19 19 19 19 20 20 20 21 21 20 20 22 25 27 26 23 20 20 21 22 23 23 23 22 21 21 21 20 20 23 24 23 22 24 26 27 26 26 26 27 28 28 29 29 30 30 29 29 29 29 29 29 29 29 29 29 28 28 28 27 26 26 26 26 26 26 26 26
18 17 17 18 18 18 19 19 19 19 18 18 18 18 19 19 19 20 20 20 21 21 21 22 22 23 23 23 23 25 27 29 28 26 23 23 23 23 24 25 25 23 21 22 21 20 19 21 24 25 23 21 22 24 27 27 26 26 27 28 29 29 30 30 30 29 29 29 29 28 28 28 28 28 28 28 27 27 27 28 28 28 28 28 28 28
16 16 17 17 17 18 18 19 19 19 19 19 20 20 20 20 21 22 22 23 23 23 23 24 24 24 24 25 26 28 29 30 30 29 28 28 27 26 25 26 27 26 23 21 22 22 21 20 21 23 22 20 19 21 25 27 27 27 28 28 29 29 30 30 29 28 28 28 28 28 27 27 26 27 27 27 28 28 28 28 29 29 29 28 28 28
15 16 16 17 17 17 18 18 19 19 19 20 21 22 22 22 23 24 24 25 25 25 25 25 25 25 26 26 28 30 32 33 34 34 34 32 31 29 27 27 26 26 24 23 23 22 21 17 14 13 13 18 22 24 26 27 27 28 29 29 29 29 29 29 28 27 26 27 27 27 27 27 27 27 28 28 28 28 28 29 29 29 28 28 28 28
15 16 16 16 17 17 18 18 19 20 21 21 22 23 23 24 24 25 25 25 25 24 24 24 25 26 27 28 29 30 31 31 33 34 34 34 32 30 28 27 27 27 26 25 24 23 22 19 15 12 10 15 21 25 27 27 27 27 29 29 30 29 29 28 27 27 26 26 27 28 28 28 28 28 28 28 28 27 27 28 28 28 27 26 26 27
15 16 16 17 17 17 18 19 20 21 22 23 23 24 23 23 24 24 25 24 24 23 23 24 24 25 26 27 27 28 29 31 32 33 33 33 33 31 29 28 27 27 27 26 25 25 24 23 23 23 22 20 21 24 26 27 28 28 28 27 26 27 29 29 28 28 28 27 27 27 27 27 27 27 27 27 26 26 26 27 28 27 26 25 25 25
16 16 17 18 18 19 19 20 21 22 22 23 23 23 22 22 22 23 24 24 24 24 23 23 23 24 26 27 27 28 28 29 30 30 31 32 32 32 31 30 29 28 27 26 26 25 25 25 25 26 25 25 25 26 27 28 29 30 29 26 26 28 31 31 30 28 27 26 26 26 26 27 27 27 27 27 27 27 28 28 28 28 27 26 25 24
16 17 18 19 19 20 21 22 22 22 22 21 21 21 21 21 21 22 23 23 24 23 23 23 23 24 26 27 27 27 26 27 28 29 29 30 30 31 31 31 30 29 28 27 27 26 26 25 25 26 26 26 25 24 25 28 30 30 28 27 28 29 30 30 29 28 26 26 26 26 26 26 27 27 27 28 28 29 30 29 29 28 27 26 26 25
17 18 19 20 21 21 22 21 21 21 21 21 21 21 21 21 21 21 21 21 22 23 23 23 23 24 25 26 27 27 26 26 26 26 27 28 28 29 30 31 31 30 28 26 26 26 26 26 26 26 26 27 25 24 25 27 29 30 30 29 27 25 21 25 28 29 27 27 27 27 26 26 27 28 28 28 28 29 29 29 29 29 28 28 28 29
18 19 20 20 21 21 21 20 20 20 21 21 21 21 21 21 21 21 21 21 22 23 23 23 23 23 23 25 26 27 27 27 26 25 25 26 26 27 28 28 29 29 28 27 26 26 26 27 27 28 28 27 26 26 26 28 29 29 30 30 28 25 22 25 28 29 28 28 28 28 27 27 28 29 29 29 29 28 28 28 28 29 29 30 30 29
19 19 20 20 20 20 20 20 20 21 21 21 21 22 22 21 21 21 21 22 23 23 23 22 21 21 22 23 25 26 27 27 27 26 25 25 25 25 25 26 27 28 28 28 27 26 25 25 27 28 28 26 26 26 26 27 27 28 30 30 29 28 29 30 29 28 28 28 29 29 29 29 28 28 28 28 28 27 27 26 26 26 28 28 28 29
18 18 19 19 19 20 20 20 21 21 21 21 21 22 22 22 22 22 22 22 22 22 23 22 20 19 20 22 24 25 26 27 28 27 27 26 26 26 26 26 26 26 27 27 27 27 27 26 27 28 28 26 26 27 28 28 27 27 28 29 29 28 29 29 29 28 28 27 28 29 29 28 27 26 25 26 27 27 27 26 26 26 27 27 28 28
18 18 19 19 20 20 20 20 20 20 21 21 22 22 22 22 22 22 22 22 21 21 22 21 20 19 20 22 23 23 23 25 27 28 28 28 28 28 27 26 25 25 26 26 27 28 28 29 29 28 26 25 25 26 29 30 29 27 28 28 28 28 28 28 29 29 28 27 27 28 27 26 24 23 24 25 26 26 27 27 27 27 27 28 28 28
18 18 19 19 20 20 20 20 20 20 21 21 22 23 23 22 22 21 21 22 21 21 21 21 20 21 22 22 23 23 23 24 25 27 28 28 28 28 27 26 26 25 25 26 27 28 29 30 30 30 28 26 24 24 28 30 29 28 28 28 27 26 26 28 29 29 28 27 27 27 27 25 23 23 24 25 25 26 28 28 28 27 27 28 28 28
18 19 19 19 19 20 20 20 20 20 21 22 22 23 23 23 22 21 21 21 21 21 21 20 20 21 21 23 24 24 24 25 25 26 27 27 27 27 27 27 27 27 27 28 28 29 29 29 29 29 28 27 26 26 27 29 29 29 29 28 27 26 27 28 28 28 27 27 27 27 27 25 25 24 24 24 24 26 29 29 29 28 27 27 28 28
19 19 19 19 19 19 20 20 20 20 21 22 22 23 23 23 22 22 21 21 21 20 20 20 20 21 21 23 24 24 24 24 25 25 26 26 26 26 26 26 26 26 27 27 28 27 27 26 25 25 24 24 25 26 26 27 28 29 28 27 26 26 26 26 27 27 27 26 26 26 26 26 26 25 24 23 24 26 28 29 28 27 26 26 26 27
19 19 19 19 19 19 20 20 20 21 21 22 22 23 23 23 23 22 22 21 21 21 21 21 21 21 21 23 24 24 24 24 24 24 26 27 26 25 25 25 24 23 23 22 22 21 19 17 17 20 22 22 22 22 24 25 26 26 25 26 26 26 25 25 26 27 26 26 26 26 26 26 26 25 24 23 22 23 24 25 27 27 26 25 25 26
Wind_Direction
299 302 304 307 309 309 308 309 310 310 310 311 311 312 312 312 311 310 310 309 309 308 308 308 307 307 306 306 305 305 305 304 304 304 304 303 303 304 304 304 304 305 305 305 305 305 304 304 304 303 303 302 302 301 301 300 300 299 299 298 297 297 297 296 296 296 296 295 295 295 295 295 295 294 294 294 293 292 291 290 288 287 285 284 283 281
302 303 306 307 308 308 306 307 308 308 308 308 309 310 310 310 309 308 308 308 307 307 307 306 306 305 305 305 305 305 304 303 303 303 303 303 303 304 304 305 305 305 305 305 305 305 305 305 304 304 303 303 302 302 302 301 301 300 299 299 298 298 298 297 296 297 296 296 295 295 294 294 293 292 292 291 290 289 288 287 285 284 283 281 280 280
306 307 307 308 308 306 305 306 307 307 307 306 307 308 309 309 308 307 306 307 307 306 305 305 304 304 304 305 305 304 303 302 302 302 302 303 303 304 304 305 305 305 305 306 305 305 305 305 305 304 304 303 303 303 302 302 302 301 300 299 299 298 298 297 297 297 296 295 295 294 294 293 292 291 290 289 288 287 286 285 283 282 282 281 280 279
307 307 307 308 307 305 303 304 306 306 306 306 306 308 309 308 306 305 305 305 305 305 304 304 304 304 304 304 304 304 303 302 302 302 302 303 303 304 304 304 305 305 305 305 305 305 305 305 304 304 304 304 304 303 303 302 302 301 300 299 299 298 297 297 297 297 296 295 294 293 292 292 291 290 289 288 287 285 284 284 283 282 281 281 280 279
306 306 307 308 307 304 304 304 305 306 306 306 307 308 308 306 304 303 303 303 304 304 304 304 304 304 304 304 304 304 303 302 301 302 302 302 303 303 304 304 304 304 304 304 304 304 304 304 304 304 304 304 304 303 303 302 301 301 300 299 298 298 297 297 296 296 296 295 294 293 292 291 290 289 288 287 286 285 284 283 282 282 281 280 279 278
304 305 305 305 304 303 304 305 305 307 308 308 308 307 306 305 303 303 303 304 304 304 304 304 304 304 304 303 303 303 302 301 301 301 301 302 302 303 303 303 303 303 303 303 303 303 304 304 304 304 304 304 304 303 303 302 301 300 300 299 298 298 297 296 295 295 295 294 293 293 292 290 289 288 287 286 286 285 284 283 282 281 280 279 278 277
303 304 304 303 302 301 303 304 306 307 309 309 308 306 305 305 304 303 304 304 305 305 305 305 305 304 304 303 303 303 302 302 301 301 301 301 301 301 302 302 302 302 302 302 303 303 304 304 304 304 304 304 304 303 302 302 301 300 300 299 298 298 297 297 296 295 295 294 293 293 292 290 289 288 287 286 285 284 283 282 281 280 279 278 277 276
303 304 304 303 302 302 302 304 306 308 309 308 308 307 307 307 306 305 305 305 306 306 307 306 306 305 304 304 304 303 303 303 303 302 302 301 301 301 301 301 301 301 301 302 302 303 303 304 304 304 304 304 303 303 302 302 301 300 300 299 299 298 297 297 296 296 295 294 293 292 292 291 290 289 287 286 285 284 283 283 282 281 280 279 278 278
301 302 302 301 301 301 304 305 307 309 310 307 306 306 307 308 308 308 308 308 308 308 308 307 307 305 305 305 305 305 304 303 302 302 301 301 300 300 300 300 301 300 301 301 302 303 303 303 303 303 303 302 302 302 302 301 301 300 300 299 299 298 297 297 296 296 295 294 293 292 291 290 289 288 287 286 286 286 286 285 284 283 282 281 281 280
297 297 298 298 299 300 303 306 309 310 310 307 304 303 304 306 309 310 311 310 310 309 309 308 307 306 306 306 306 306 305 303 301 300 299 299 299 299 299 299 299 299 300 301 302 302 302 302 302 302 301 301 301 301 301 300 300 299 299 298 298 297 297 296 296 295 294 293 292 291 290 289 288 288 288 288 288 288 288 286 285 284 283 283 282 281
297 296 295 299 302 304 305 305 307 309 309 306 304 303 304 306 309 312 312 311 311 311 309 308 307 307 307 308 307 307 305 303 302 300 299 298 298 298 298 297 298 298 300 300 301 300 300 300 300 300 300 300 300 299 299 299 299 298 298 297 297 296 296 295 295 294 293 292 291 291 290 290 290 289 289 289 289 289 288 287 286 285 284 283 282 281
298 299 300 304 307 307 307 306 306 307 308 308 309 309 309 310 311 312 310 309 309 309 309 308 307 306 306 306 306 306 305 303 302 301 301 300 300 300 300 299 300 300 301 301 300 299 299 298 298 298 298 298 298 298 298 298 297 297 297 296 296 296 295 295 294 293 293 292 292 291 291 291 291 291 291 290 290 290 289 287 286 285 284 283 281 280
300 302 304 305 305 306 306 306 307 309 310 311 311 311 311 312 313 311 307 305 305 305 307 307 307 306 305 305 305 305 304 302 301 301 301 302 302 303 303 303 303 302 302 301 300 298 298 298 298 297 296 296 296 296 297 297 296 296 296 296 296 295 295 295 294 294 293 293 292 292 291 291 291 291 290 290 290 289 289 288 287 286 284 283 281 280
303 304 303 303 303 303 305 306 308 309 310 311 311 310 310 311 311 309 305 302 302 303 305 305 305 305 305 305 305 304 303 303 303 303 303 303 304 304 305 304 303 302 301 300 298 297 297 297 297 296 296 295 296 296 297 297 296 296 296 296 296 295 295 295 294 294 293 293 292 292 291 291 290 290 290 289 289 289 289 288 287 286 285 283 282 281
302 302 302 301 301 303 306 307 308 308 308 309 309 309 309 308 307 306 304 302 303 304 305 304 304 304 305 306 307 307 306 306 307 308 307 305 304 304 305 304 302 301 299 298 296 295 295 295 294 294 295 295 295 296 296 296 296 296 296 296 296 295 295 295 294 294 293 293 292 292 292 291 291 290 290 290 289 289 288 288 287 286 285 284 283 282
299 299 299 300 301 303 305 307 307 306 306 307 308 308 307 306 304 303 301 301 302 304 304 305 305 306 306 307 309 310 311 312 312 310 308 305 304 304 305 304 302 300 298 296 294 294 295 294 294 293 294 294 294 295 295 295 295 295 295 295 295 295 295 294 294 294 293 293 293 292 292 292 292 291 291 290 289 289 288 287 287 286 285 284 283 282
297 298 299 300 301 303 305 305 305 304 305 306 306 305 303 301 300 299 299 299 299 299 299 301 303 305 307 309 310 312 315 316 314 310 307 304 303 304 304 303 300 298 296 294 293 293 293 293 293 293 293 293 294 294 295 295 295 295 295 295 295 294 294 294 294 294 293 293 293 293 293 292 292 291 291 290 289 289 288 287 286 285 285 284 283 283
300 301 302 302 302 302 304 304 304 303 304 304 303 301 299 297 296 295 295 294 293 293 294 294 295 299 303 306 308 310 314 315 313 309 305 302 302 303 304 302 298 295 294 293 292 292 292 292 292 292 293 293 294 294 294 294 294 294 294 294 294 294 294 294 294 293 293 293 293 293 292 292 292 291 291 290 290 289 288 287 286 286 285 284 284 283
302 301 301 301 300 300 301 301 301 301 301 301 299 298 297 294 293 292 290 289 288 288 290 292 294 296 300 302 304 307 310 312 310 306 303 301 301 303 304 302 298 295 293 292 291 292 292 292 292 292 292 292 293 293 294 294 294 294 294 294 294 294 293 293 293 293 293 293 292 292 292 292 292 291 291 290 289 289 288 287 286 286 286 285 284 283
299 297 296 297 298 298 297 297 297 297 297 296 294 293 292 292 292 290 289 288 287 288 290 293 296 300 302 302 302 304 307 309 307 304 301 299 299 301 302 301 298 295 294 292 292 293 293 293 293 293 292 292 292 293 293 293 293 293 294 293 293 293 293 293 292 292 292 292 292 292 292 291 291 290 290 289 289 288 288 287 287 286 286 285 284 283
293 292 292 293 294 294 293 294 294 293 292 291 290 288 288 289 289 289 289 290 292 295 299 300 300 301 302 301 301 302 304 306 304 301 299 298 298 298 300 299 298 296 295 294 294 295 294 294 293 293 293 293 293 293 293 293 293 293 293 293 293 293 293 292 292 292 292 292 292 292 291 291 290 290 289 289 289 289 288 288 287 286 286 285 284 283
287 288 290 290 289 288 289 290 290 290 289 287 285 282 282 283 285 289 294 300 304 305 304 301 299 299 299 297 297 298 300 301 299 298 298 296 295 296 299 300 299 297 295 295 296 297 296 295 294 293 293 292 292 292 293 293 293 293 293 293 293 293 292 292 292 292 291 291 291 291 291 290 290 290 290 290 290 289 289 288 287 287 286 285 284 283
284 286 290 290 288 286 286 286 286 287 287 284 280 277 278 282 290 299 307 309 307 304 301 299 298 297 296 295 294 295 297 297 296 295 295 292 293 296 300 301 300 297 295 296 297 298 297 296 294 293 293 292 292 292 292 292 292 292 292 292 292 292 292 291 291 291 291 291 291 291 291 291 291 291 291 291 291 290 289 288 287 286 285 285 284 283
287 288 290 289 289 288 287 285 286 287 288 287 286 286 290 297 303 306 306 305 302 301 299 299 298 297 296 295 295 296 296 297 297 295 292 289 291 295 299 300 299 297 295 296 298 299 298 296 295 294 293 292 291 291 291 291 291 292 292 292 292 292 292 291 291 291 291 291 291 291 291 292 292 292 292 291 290 290 289 288 287 286 285 284 283 283
291 290 291 290 290 291 291 290 291 294 297 302 307 311 312 310 308 305 303 302 300 300 300 300 298 297 297 299 298 297 297 299 299 296 291 289 291 294 297 299 298 296 296 297 299 299 299 297 296 295 294 292 291 291 290 290 290 291 291 291 291 291 291 291 291 291 291 291 292 292 292 292 292 292 291 291 290 289 288 287 286 286 285 285 284 283
292 292 292 292 293 294 295 296 298 300 303 306 308 308 308 306 305 302 301 300 301 302 304 301 298 297 298 298 298 297 299 300 300 296 292 291 292 294 296 297 297 295 296 298 299 300 299 297 296 295 294 292 291 290 289 289 289 290 291 291 291 291 291 291 291 291 292 292 292 292 292 292 291 291 290 290 289 289 288 287 286 286 286 286 285 284
295 294 293 294 295 297 298 299 300 300 300 300 301 301 302 302 302 300 298 300 303 306 304 301 298 297 298 297 296 296 299 300 299 296 293 290 289 290 293 296 297 296 297 298 299 299 298 296 295 294 293 291 290 290 289 289 290 290 291 291 291 291 291 291 291 291 292 291 292 292 292 291 291 290 290 289 289 289 288 288 287 287 287 287 286 286
299 299 298 298 298 299 299 299 299 299 299 299 299 300 300 300 299 298 297 300 303 303 298 294 293 295 296 296 296 297 298 297 296 295 294 290 286 286 291 296 298 299 299 299 300 299 297 294 293 292 291 291 291 291 291 291 291 291 291 292 291 291 291 291 291 292 292 292 292 291 291 291 290 290 290 289 289 289 289 288 288 288 288 287 287 286
304 303 302 301 301 301 301 301 301 302 302 301 301 301 301 299 297 295 295 298 298 295 290 288 289 291 293 295 297 297 297 294 294 296 298 293 287 287 292 297 299 300 301 301 301 301 298 294 292 291 292 292 293 293 293 293 293 292 292 291 291 291 291 291 292 292 292 292 292 291 291 291 290 290 290 289 289 289 288 288 288 288 288 287 286 285
309 308 306 305 305 306 306 306 307 307 306 304 302 301 300 297 293 291 290 290 289 286 285 286 288 290 293 297 298 298 295 293 295 300 304 299 293 291 296 298 298 299 301 303 303 302 300 298 296 294 294 295 295 295 295 295 294 294 293 292 292 292 291 292 292 292 292 292 292 291 291 290 290 289 289 289 288 288 288 288 288 288 288 287 285 285
312 311 310 310 310 311 311 312 312 310 308 305 303 300 298 294 290 288 286 285 282 281 282 285 287 289 292 295 297 296 292 293 296 301 305 301 294 292 296 296 296 296 298 298 298 301 302 302 301 300 298 297 296 296 295 295 294 294 293 293 292 292 292 292 292 293 293 292 292 291 290 290 289 289 288 288 288 287 287 287 287 287 286 285 284 283
313 313 312 313 313 314 314 313 312 310 308 305 303 300 298 294 291 288 286 284 283 282 282 284 286 287 288 286 284 281 284 289 293 297 301 297 292 291 294 294 294 295 296 293 289 287 295 300 301 301 301 299 297 295 295 294 294 294 293 293 292 292 292 293 293 294 293 293 292 291 290 289 289 288 288 287 287 287 287 286 286 285 284 283 283 281
313 313 313 314 315 315 314 312 311 309 307 305 303 301 299 296 293 290 288 286 285 283 282 283 284 285 285 283 281 280 281 284 289 294 297 295 292 292 293 293 293 294 295 293 288 285 284 286 294 298 299 298 297 295 295 295 294 293 293 292 291 291 292 293 293 293 293 292 292 291 290 289 288 287 287 286 286 285 285 285 284 283 282 280 279 278
315 316 316 315 315 314 312 312 311 310 308 306 304 302 301 299 297 294 292 290 287 285 282 281 281 282 283 283 283 282 281 283 287 292 295 294 291 291 293 292 292 293 294 294 291 288 286 286 290 294 297 297 297 296 295 295 294 293 292 291 290 291 292 293 293 292 292 291 291 290 289 289 288 287 286 286 285 284 283 283 282 281 279 277 276 276
318 317 315 315 314 313 312 312 312 311 310 308 306 304 302 301 299 297 295 293 290 287 284 281 279 278 278 280 281 282 283 285 288 292 293 291 289 289 291 290 291 292 292 292 291 291 289 289 289 292 294 297 297 296 295 295 294 294 292 291 290 290 291 291 291 291 291 290 289 288 287 287 287 286 286 285 284 283 283 283 283 281 279 278 277 277
317 315 314 313 313 313 313 313 313 312 311 309 308 306 305 303 301 299 298 295 293 290 287 284 280 277 275 275 275 277 280 284 288 290 290 288 286 286 287 288 289 289 289 289 289 289 289 290 291 292 293 294 295 297 297 297 296 295 293 292 292 291 291 291 290 290 289 288 287 286 286 285 285 285 285 285 284 284 285 284 283 282 281 280 278 277
314 312 312 313 313 313 313 313 313 313 312 311 310 308 307 305 303 301 299 297 295 293 290 287 284 280 277 275 274 275 277 282 285 287 286 285 283 282 282 284 286 286 284 284 286 287 288 289 291 292 292 290 291 294 297 299 299 297 294 293 293 292 291 290 289 288 287 286 285 284 285 284 284 284 284 284 285 285 284 282 281 280 279 278 277 276
311 310 311 313 314 314 314 313 313 312 311 311 310 308 307 305 303 302 300 299 297 295 293 291 289 286 283 280 278 278 279 281 283 285 285 284 282 280 279 280 282 282 281 280 281 283 285 286 288 290 290 290 290 291 294 297 297 296 294 294 294 292 291 290 289 288 286 285 285 285 285 285 285 284 284 283 283 282 281 280 279 278 277 276 276 274
309 309 311 313 314 314 313 312 311 311 310 309 308 307 306 305 303 302 302 301 299 298 296 294 292 290 288 286 285 283 282 283 284 285 286 285 283 280 278 279 280 281 280 279 278 278 279 280 282 284 287 289 290 292 293 294 293 293 294 295 295 293 291 291 290 289 288 286 285 285 286 285 284 283 282 281 280 279 277 278 278 277 275 274 274 275
310 310 311 312 312 312 310 309 309 308 308 307 307 306 306 305 305 304 304 303 302 300 298 297 295 293 291 290 288 287 286 285 286 287 287 286 284 282 279 278 278 279 280 279 278 277 277 277 279 280 282 284 287 290 292 292 291 292 293 294 294 293 293 292 292 290 288 286 284 283 283 284 283 282 280 280 278 276 274 275 276 276 274 272 272 273
311 311 311 311 311 310 308 308 307 307 306 306 306 305 306 306 306 306 306 306 305 304 303 302 300 298 296 293 291 289 288 288 287 287 287 287 286 284 281 279 278 278 278 278 277 276 275 275 277 279 280 281 283 285 287 288 289 290 291 290 289 289 291 291 290 289 287 285 284 283 282 283 283 282 281 279 277 275 274 274 274 274 274 272 269 268
311 310 309 309 308 308 307 307 307 307 307 306 305 305 305 305 305 306 306 305 305 305 305 305 303 302 300 298 295 293 290 289 288 288 289 289 289 287 284 282 280 278 277 277 277 276 274 273 274 276 279 280 282 283 285 286 287 288 287 286 287 289 291 290 289 288 287 285 285 284 282 282 282 281 279 278 277 277 275 273 273 272 272 270 268 265
308 306 306 306 306 306 307 306 307 307 308 307 305 304 304 304 304 303 302 301 302 303 303 303 302 300 299 298 298 297 296 294 293 292 291 291 290 289 287 285 283 280 277 276 276 276 276 275 274 274 276 279 280 281 283 285 286 287 286 285 286 287 289 289 290 290 288 286 285 284 282 281 280 280 279 278 277 276 275 274 274 273 270 268 266 266
305 305 305 305 306 307 308 308 308 308 308 306 305 304 303 303 302 302 300 299 299 300 301 301 300 299 297 297 298 300 301 301 299 297 294 292 291 290 289 286 283 281 278 274 273 275 277 278 277 277 278 278 278 279 280 283 284 285 285 285 284 282 280 283 287 289 288 286 285 283 281 280 280 280 279 279 277 276 275 273 272 271 269 267 266 265
304 305 306 307 307 308 308 308 307 307 307 305 303 303 303 303 303 301 299 298 299 299 300 299 299 299 298 298 300 303 304 304 303 301 299 297 296 294 291 288 285 283 279 275 272 271 273 275 278 280 280 279 277 277 277 279 281 282 283 284 283 281 279 281 282 284 284 284 284 284 282 281 280 279 278 278 277 276 275 273 271 270 270 268 267 265
306 306 307 307 308 307 307 307 307 306 305 304 303 303 303 304 303 302 299 298 297 297 298 298 297 295 295 298 301 303 304 305 305 305 304 302 301 299 296 292 289 285 282 278 275 273 271 271 275 279 281 281 279 278 277 278 279 280 282 283 283 282 282 282 282 282 281 281 282 282 282 281 279 277 276 276 277 278 277 276 274 272 271 270 268 266
307 306 307 307 307 307 306 307 307 306 305 304 303 303 303 303 303 302 301 299 297 297 298 298 296 293 292 294 297 299 301 302 303 304 305 304 304 303 301 298 294 290 287 283 281 278 275 273 273 274 276 278 280 280 279 279 278 278 279 281 282 282 282 282 282 282 281 280 280 280 281 281 279 277 277 278 280 280 280 279 277 274 272 271 269 268
307 307 306 306 306 307 307 307 307 306 305 304 304 304 304 303 303 302 301 300 299 299 299 298 296 294 294 294 295 296 297 298 299 300 302 303 304 304 303 302 300 297 294 289 286 283 280 278 276 273 272 272 273 276 278 279 278 277 277 279 280 280 280 281 282 284 283 282 281 281 282 282 281 281 282 283 283 283 282 281 279 276 273 271 270 268
306 305 305 305 305 305 305 306 306 305 304 304 304 304 305 304 303 302 300 300 299 298 297 296 295 295 295 295 296 296 297 297 296 297 298 300 302 303 303 303 303 302 300 297 294 291 288 285 281 276 271 267 266 268 272 275 276 277 278 278 278 279 280 282 284 285 285 284 284 284 284 283 282 282 283 283 283 283 284 282 280 278 275 272 270 268
305 304 305 304 304 303 304 305 305 304 303 303 303 304 304 305 304 303 302 301 299 297 295 293 293 293 294 294 295 296 296 296 296 296 297 299 300 301 301 302 302 302 302 301 300 298 296 293 290 285 279 271 265 264 267 272 276 278 279 279 279 279 280 282 284 286 287 287 287 287 286 285 284 282 281 280 280 282 283 282 280 279 277 274 272 269
306 305 305 304 303 303 303 303 303 302 302 301 302 302 303 303 304 304 304 303 300 298 295 294 293 292 292 293 293 294 294 294 294 294 295 298 299 299 299 299 299 299 299 300 300 300 300 298 295 293 291 286 278 271 269 272 275 278 279 280 280 281 281 282 284 286 287 288 288 288 287 285 284 282 279 277 278 280 282 281 281 281 280 278 275 272